Flag Weather past 2 weeks in Alice Springs, Northern Territory, Australia

Now
86 °F

Drizzle. Partly sunny.


Feels Like: 83 °F
Forecast: 72 / 89 °F
Wind: 20 mph from Southwest

Location: Alice Springs Aerodrome

Current Time: Oct 31, 2014 at 6:02:39 PM

Latest Report: Oct 31, 2014 at 5:30 PM


Visibility: N/A

Pressure: 29.86 "Hg

Humidity: 24%

Dew point: 45 °F

Location of Alice SpringsLocation

Historic Weather in Alice Springs — Graph

°F

Alice Springs temperature yesterday

Maximum temperature yesterday: 99 °F (at 1:00 PM)
Minimum temperature yesterday: 63 °F (at 6:00 AM)
Average temperature yesterday: 84 °F

Past Weeks' High & Low Weather Summary

 TemperatureHumidityPressure
High102 °F (Oct 26, 3:30 PM)44% (Oct 29, 5:30 AM)30.21 "Hg (Oct 29, 5:30 AM)
Low45 °F (Oct 17, 6:00 AM)0% (Oct 18, 2:00 PM)29.83 "Hg (Oct 30, 3:30 PM)
Average81 °F14%30.04 "Hg
* Reported Oct 16 4:30 PM — Oct 31 4:30 PM, Alice Springs, Weather by CustomWeather, © 2014

Note: Actual official high and low records may vary slightly from our data, if they occured in-between our weather recording intervals... More about our weather records

Advertising

Alice Springs weather history for previous 24 hours

 ConditionsComfort  
Time TempWeatherWind HumidityBarometerVisibility
4:30 PM
Oct 31
90 °FSunny.13 mph17%29.83 "Hg10 mi
4:00 PM91 °FSunny.16 mph16%29.83 "Hg10 mi
3:30 PM91 °FSunny.13 mph15%29.83 "Hg10 mi
3:00 PM91 °FLight rain. Clear.15 mph13%29.86 "HgN/A
2:30 PM91 °FSunny.17 mph14%29.86 "Hg10 mi
2:00 PM93 °FSunny.10 mph12%29.86 "Hg10 mi
1:30 PM95 °FPassing clouds.8 mph11%29.86 "HgN/A
1:00 PM95 °FPassing clouds.9 mph11%29.89 "HgN/A
12:30 PM93 °FSunny.10 mph13%29.89 "Hg10 mi
12:00 PM93 °FSunny.5 mph14%29.89 "Hg10 mi
11:30 AM91 °FSunny.3 mph15%29.92 "Hg10 mi
11:00 AM90 °FSunny.3 mph16%29.92 "Hg10 mi
10:30 AM88 °FSunny.3 mph19%29.95 "Hg10 mi
10:00 AM86 °FSunny.6 mph15%29.95 "Hg10 mi
9:30 AM84 °FPassing clouds.5 mph18%29.95 "HgN/A
8:30 AM82 °FSunny.8 mph16%29.98 "Hg10 mi
8:00 AM81 °FLight rain. Clear.8 mph16%29.98 "HgN/A
7:30 AM81 °FSunny.6 mph17%29.95 "Hg10 mi
7:00 AM77 °FSunny.No wind24%29.95 "Hg10 mi
6:30 AM77 °FSunny.6 mph21%29.95 "Hg10 mi
6:00 AM75 °FSunny.1 mph22%29.92 "Hg10 mi
5:30 AM77 °FSunny.10 mph18%29.92 "HgN/A
5:00 AM75 °FClear.7 mph19%29.89 "HgN/A
4:30 AM73 °FClear.6 mph22%29.86 "HgN/A
4:00 AM73 °FClear.6 mph23%29.83 "HgN/A
3:30 AM79 °FClear.9 mph18%29.86 "HgN/A
2:30 AM79 °FClear.6 mph23%29.89 "HgN/A
1:30 AM79 °FClear.8 mph23%29.86 "HgN/A
1:00 AM79 °FClear.8 mph21%29.89 "HgN/A
12:30 AM79 °FClear.6 mph23%29.92 "HgN/A
12:00 AM79 °FClear.8 mph21%29.92 "HgN/A
11:30 PM
Oct 30
79 °FClear.6 mph23%29.92 "HgN/A
11:00 PM79 °FClear.5 mph24%29.95 "HgN/A
10:30 PM81 °FClear.5 mph21%29.95 "HgN/A
10:00 PM81 °FClear.5 mph20%29.95 "HgN/A
9:30 PM82 °FClear.6 mph20%29.95 "HgN/A
9:00 PM82 °FClear.8 mph17%29.95 "HgN/A
8:30 PM84 °FClear.10 mph15%29.95 "HgN/A
8:00 PM84 °FClear.15 mph15%29.92 "HgN/A
7:30 PM86 °FClear.20 mph14%29.92 "HgN/A
6:30 PM93 °FClear.15 mph7%29.86 "HgN/A
6:00 PM95 °FSunny.21 mph6%29.86 "HgN/A
Weather by CustomWeather, © 2014

See weather overviewHow to use our weather pages